Time,TemperatureF,DewpointF,PressureIn,WindDirection,WindDirectionDegrees,WindSpeedMPH,WindSpeedGustMPH,Humidity,HourlyPrecipIn,Conditions,Clouds,dailyrainin,SoftwareType,DateUTC
2013-06-09 00:01:00,65.7,50.0,29.59,ESE,113,0.0,0.0,54,0.00,,,0.00,WUHU216WMR968SP,2013-06-09 05:01:00,
2013-06-09 00:06:00,65.5,50.0,29.62,ESE,113,0.0,0.0,56,0.00,,,0.00,WUHU216WMR968SP,2013-06-09 05:06:00,
2013-06-09 00:11:00,65.5,51.8,29.62,ESE,113,0.0,0.0,59,0.00,,,0.00,WUHU216WMR968SP,2013-06-09 05:11:00,
2013-06-09 00:17:00,65.5,51.8,29.62,ESE,113,0.0,0.0,60,0.00,,,0.00,WUHU216WMR968SP,2013-06-09 05:17:00,
2013-06-09 00:22:00,65.3,51.8,29.62,ESE,113,0.0,0.0,59,0.00,,,0.00,WUHU216WMR968SP,2013-06-09 05:22:00,
2013-06-09 00:27:00,65.3,51.8,29.62,ESE,121,0.0,0.0,60,0.00,,,0.00,WUHU216WMR968SP,2013-06-09 05:27:00,
2013-06-09 00:33:00,65.3,51.8,29.62,ESE,102,0.0,0.0,60,0.00,,,0.00,WUHU216WMR968SP,2013-06-09 05:33:00,
2013-06-09 00:39:00,65.7,51.8,29.62,East,96,2.7,3.6,61,0.00,,,0.00,WUHU216WMR968SP,2013-06-09 05:39:00,
2013-06-09 00:44:00,66.4,51.8,29.62,SE,146,0.0,4.0,59,0.00,,,0.00,WUHU216WMR968SP,2013-06-09 05:44:00,
2013-06-09 00:49:00,66.9,50.0,29.62,East,93,0.0,4.0,57,0.00,,,0.00,WUHU216WMR968SP,2013-06-09 05:49:00,
2013-06-09 00:55:00,67.6,50.0,29.62,NE,51,0.0,4.0,54,0.00,,,0.00,WUHU216WMR968SP,2013-06-09 05:55:00,
2013-06-09 01:00:00,68.0,50.0,29.62,ESE,106,0.0,3.6,52,0.00,,,0.00,WUHU216WMR968SP,2013-06-09 06:00:00,
2013-06-09 01:06:00,68.4,48.2,29.62,SE,142,0.0,3.6,50,0.00,,,0.00,WUHU216WMR968SP,2013-06-09 06:06:00,
2013-06-09 01:11:00,68.5,48.2,29.62,ESE,105,0.0,3.1,50,0.00,,,0.00,WUHU216WMR968SP,2013-06-09 06:11:00,
2013-06-09 01:17:00,68.5,48.2,29.62,SE,127,2.5,4.0,49,0.00,,,0.00,WUHU216WMR968SP,2013-06-09 06:17:00,
2013-06-09 01:22:00,68.7,48.2,29.59,SE,125,3.0,4.0,48,0.00,,,0.00,WUHU216WMR968SP,2013-06-09 06:22:00,
2013-06-09 01:27:00,68.7,48.2,29.59,ESE,111,0.0,4.0,48,0.00,,,0.00,WUHU216WMR968SP,2013-06-09 06:27:00,
2013-06-09 01:33:00,68.9,50.0,29.59,ESE,103,2.6,3.6,48,0.00,,,0.00,WUHU216WMR968SP,2013-06-09 06:33:00,
2013-06-09 01:38:00,68.9,50.0,29.59,ESE,115,0.0,3.6,48,0.00,,,0.00,WUHU216WMR968SP,2013-06-09 06:38:00,
2013-06-09 01:44:00,69.1,48.2,29.59,East,93,0.0,4.0,47,0.00,,,0.00,WUHU216WMR968SP,2013-06-09 06:44:00,
2013-06-09 01:49:00,69.3,48.2,29.59,East,95,0.0,4.0,46,0.00,,,0.00,WUHU216WMR968SP,2013-06-09 06:49:00,
2013-06-09 01:55:00,68.9,48.2,29.59,SSE,160,0.0,3.6,47,0.00,,,0.00,WUHU216WMR968SP,2013-06-09 06:55:00,
2013-06-09 02:00:00,68.7,46.4,29.59,ESE,102,0.0,3.6,47,0.00,,,0.00,WUHU216WMR968SP,2013-06-09 07:00:00,
2013-06-09 02:05:00,68.5,46.4,29.59,ESE,119,0.0,3.6,47,0.00,,,0.00,WUHU216WMR968SP,2013-06-09 07:05:00,
2013-06-09 02:11:00,68.4,46.4,29.59,ESE,108,2.2,3.6,47,0.00,,,0.00,WUHU216WMR968SP,2013-06-09 07:11:00,
2013-06-09 02:16:00,68.4,46.4,29.59,East,90,0.0,3.6,47,0.00,,,0.00,WUHU216WMR968SP,2013-06-09 07:16:00,
2013-06-09 02:22:00,68.2,46.4,29.59,East,79,0.0,2.7,47,0.00,,,0.00,WUHU216WMR968SP,2013-06-09 07:22:00,
2013-06-09 02:27:00,68.4,46.4,29.59,East,79,0.0,0.0,47,0.00,,,0.00,WUHU216WMR968SP,2013-06-09 07:27:00,
2013-06-09 02:32:00,68.5,46.4,29.59,ESE,123,0.0,0.0,47,0.00,,,0.00,WUHU216WMR968SP,2013-06-09 07:32:00,
2013-06-09 02:38:00,68.5,46.4,29.59,East,101,0.0,2.7,47,0.00,,,0.00,WUHU216WMR968SP,2013-06-09 07:38:00,
2013-06-09 02:43:00,68.2,46.4,29.59,ESE,109,0.0,2.7,47,0.00,,,0.00,WUHU216WMR968SP,2013-06-09 07:43:00,
2013-06-09 02:49:00,68.0,46.4,29.59,East,97,0.0,2.7,47,0.00,,,0.00,WUHU216WMR968SP,2013-06-09 07:49:00,
2013-06-09 02:54:00,68.0,48.2,29.59,SE,139,0.0,3.1,48,0.00,,,0.00,WUHU216WMR968SP,2013-06-09 07:54:00,
2013-06-09 03:00:00,68.0,48.2,29.59,ESE,116,0.0,3.1,48,0.00,,,0.00,WUHU216WMR968SP,2013-06-09 08:00:00,
2013-06-09 03:05:00,68.0,48.2,29.59,ESE,116,0.0,3.1,48,0.00,,,0.00,WUHU216WMR968SP,2013-06-09 08:05:00,
2013-06-09 03:10:00,68.2,48.2,29.59,ENE,75,0.0,3.1,49,0.00,,,0.00,WUHU216WMR968SP,2013-06-09 08:10:00,
2013-06-09 03:16:00,68.4,48.2,29.59,East,83,0.0,3.6,48,0.00,,,0.00,WUHU216WMR968SP,2013-06-09 08:16:00,
2013-06-09 03:21:00,68.2,48.2,29.59,ESE,114,0.0,3.6,48,0.00,,,0.00,WUHU216WMR968SP,2013-06-09 08:21:00,
2013-06-09 03:27:00,68.0,48.2,29.59,ESE,112,2.7,3.1,48,0.00,,,0.00,WUHU216WMR968SP,2013-06-09 08:27:00,
2013-06-09 03:32:00,67.6,48.2,29.59,SE,144,0.0,3.1,49,0.00,,,0.00,WUHU216WMR968SP,2013-06-09 08:32:00,
2013-06-09 03:38:00,67.3,48.2,29.59,ENE,74,0.0,0.0,50,0.00,,,0.00,WUHU216WMR968SP,2013-06-09 08:38:00,
2013-06-09 03:43:00,67.1,50.0,29.59,East,95,0.0,2.2,51,0.00,,,0.00,WUHU216WMR968SP,2013-06-09 08:43:00,
2013-06-09 03:48:00,66.9,48.2,29.56,SSE,165,0.0,4.0,52,0.00,,,0.00,WUHU216WMR968SP,2013-06-09 08:48:00,
2013-06-09 03:54:00,66.7,48.2,29.56,ESE,123,2.2,4.0,53,0.00,,,0.00,WUHU216WMR968SP,2013-06-09 08:54:00,
2013-06-09 03:59:00,66.9,50.0,29.56,SE,140,2.5,5.8,54,0.00,,,0.00,WUHU216WMR968SP,2013-06-09 08:59:00,
2013-06-09 04:05:00,67.3,51.8,29.56,SE,139,2.7,5.8,56,0.00,,,0.00,WUHU216WMR968SP,2013-06-09 09:05:00,
2013-06-09 04:10:00,67.6,53.6,29.56,South,170,2.8,5.8,58,0.00,,,0.00,WUHU216WMR968SP,2013-06-09 09:10:00,
2013-06-09 04:15:00,67.8,53.6,29.56,SE,138,3.1,5.8,60,0.00,,,0.00,WUHU216WMR968SP,2013-06-09 09:15:00,
2013-06-09 04:21:00,67.8,53.6,29.56,SSE,166,2.2,5.8,59,0.00,,,0.00,WUHU216WMR968SP,2013-06-09 09:21:00,
2013-06-09 04:27:00,67.6,53.6,29.56,South,171,2.2,4.9,59,0.00,,,0.00,WUHU216WMR968SP,2013-06-09 09:27:00,
2013-06-09 04:32:00,67.6,53.6,29.56,SE,133,2.7,4.0,59,0.00,,,0.00,WUHU216WMR968SP,2013-06-09 09:32:00,
2013-06-09 04:37:00,67.5,53.6,29.56,ESE,123,2.2,4.0,59,0.00,,,0.00,WUHU216WMR968SP,2013-06-09 09:37:00,
2013-06-09 04:43:00,67.5,53.6,29.56,SE,141,0.0,4.0,59,0.00,,,0.00,WUHU216WMR968SP,2013-06-09 09:43:00,
2013-06-09 04:48:00,67.3,53.6,29.56,SE,139,2.2,4.0,58,0.00,,,0.00,WUHU216WMR968SP,2013-06-09 09:48:00,
2013-06-09 04:54:00,67.1,53.6,29.56,SE,145,0.0,4.0,59,0.00,,,0.00,WUHU216WMR968SP,2013-06-09 09:54:00,
2013-06-09 04:59:00,66.9,51.8,29.56,ESE,118,2.2,4.9,60,0.00,,,0.00,WUHU216WMR968SP,2013-06-09 09:59:00,
2013-06-09 05:04:00,66.9,51.8,29.56,SE,145,3.1,5.4,61,0.00,,,0.00,WUHU216WMR968SP,2013-06-09 10:04:00,
2013-06-09 05:10:00,66.9,51.8,29.56,SSE,155,2.5,5.4,61,0.00,,,0.00,WUHU216WMR968SP,2013-06-09 10:10:00,
2013-06-09 05:15:00,67.1,53.6,29.56,SSW,199,3.1,5.8,61,0.00,,,0.00,WUHU216WMR968SP,2013-06-09 10:15:00,
2013-06-09 05:21:00,67.1,53.6,29.56,South,179,3.6,5.8,60,0.00,,,0.00,WUHU216WMR968SP,2013-06-09 10:21:00,
2013-06-09 05:26:00,67.1,53.6,29.56,SSW,195,2.9,5.4,61,0.00,,,0.00,WUHU216WMR968SP,2013-06-09 10:26:00,
2013-06-09 05:32:00,67.1,55.4,29.56,SSE,165,2.7,5.4,62,0.00,,,0.00,WUHU216WMR968SP,2013-06-09 10:32:00,
2013-06-09 05:37:00,67.3,55.4,29.56,South,175,3.1,5.4,62,0.00,,,0.00,WUHU216WMR968SP,2013-06-09 10:37:00,
2013-06-09 05:42:00,67.3,55.4,29.56,SSE,157,2.9,4.9,62,0.00,,,0.00,WUHU216WMR968SP,2013-06-09 10:42:00,
2013-06-09 05:48:00,67.5,55.4,29.56,South,181,3.1,4.9,63,0.00,,,0.00,WUHU216WMR968SP,2013-06-09 10:48:00,
2013-06-09 05:53:00,67.6,55.4,29.56,SSE,153,3.1,4.9,63,0.00,,,0.00,WUHU216WMR968SP,2013-06-09 10:53:00,
2013-06-09 05:59:00,67.8,55.4,29.56,South,172,2.7,4.9,63,0.00,,,0.00,WUHU216WMR968SP,2013-06-09 10:59:00,
2013-06-09 06:04:00,67.8,55.4,29.56,South,176,2.9,5.4,63,0.00,,,0.00,WUHU216WMR968SP,2013-06-09 11:04:00,
2013-06-09 06:10:00,67.8,55.4,29.56,SSE,159,2.7,5.4,63,0.00,,,0.00,WUHU216WMR968SP,2013-06-09 11:10:00,
2013-06-09 06:15:00,67.6,55.4,29.56,SSE,156,2.3,4.0,63,0.00,,,0.00,WUHU216WMR968SP,2013-06-09 11:15:00,
2013-06-09 06:20:00,67.5,55.4,29.56,SSE,167,2.2,4.0,64,0.00,,,0.00,WUHU216WMR968SP,2013-06-09 11:20:00,
2013-06-09 06:26:00,67.5,55.4,29.56,SSE,150,2.7,4.0,64,0.00,,,0.00,WUHU216WMR968SP,2013-06-09 11:26:00,
2013-06-09 06:31:00,67.5,55.4,29.56,South,184,2.7,4.0,65,0.00,,,0.00,WUHU216WMR968SP,2013-06-09 11:31:00,
2013-06-09 06:37:00,67.5,55.4,29.56,SSE,158,3.1,5.4,65,0.00,,,0.00,WUHU216WMR968SP,2013-06-09 11:37:00,
2013-06-09 06:42:00,67.5,55.4,29.56,SE,143,0.0,5.4,66,0.00,,,0.00,WUHU216WMR968SP,2013-06-09 11:42:00,
2013-06-09 06:48:00,67.6,55.4,29.56,SSW,193,2.4,4.0,66,0.00,,,0.00,WUHU216WMR968SP,2013-06-09 11:48:00,
2013-06-09 06:53:00,67.8,57.2,29.56,South,175,2.7,5.4,67,0.00,,,0.00,WUHU216WMR968SP,2013-06-09 11:53:00,
2013-06-09 06:58:00,68.2,57.2,29.56,ESE,112,3.2,5.8,67,0.00,,,0.00,WUHU216WMR968SP,2013-06-09 11:58:00,
2013-06-09 07:04:00,68.9,59.0,29.56,SSE,166,2.3,5.8,67,0.00,,,0.00,WUHU216WMR968SP,2013-06-09 12:04:00,
2013-06-09 07:09:00,69.6,57.2,29.56,SSE,160,2.2,4.5,66,0.00,,,0.00,WUHU216WMR968SP,2013-06-09 12:09:00,
2013-06-09 07:15:00,69.8,57.2,29.56,South,186,2.7,4.5,64,0.00,,,0.00,WUHU216WMR968SP,2013-06-09 12:15:00,
2013-06-09 07:20:00,69.8,57.2,29.56,South,186,3.1,5.8,64,0.00,,,0.00,WUHU216WMR968SP,2013-06-09 12:20:00,
2013-06-09 07:26:00,69.8,57.2,29.56,SSE,160,3.1,5.8,65,0.00,,,0.00,WUHU216WMR968SP,2013-06-09 12:26:00,
2013-06-09 07:31:00,69.8,57.2,29.56,SSE,161,4.0,5.4,66,0.00,,,0.00,WUHU216WMR968SP,2013-06-09 12:31:00,
2013-06-09 07:36:00,70.3,59.0,29.56,South,183,2.8,5.4,68,0.00,,,0.00,WUHU216WMR968SP,2013-06-09 12:36:00,
2013-06-09 07:42:00,70.7,60.8,29.56,SSE,150,2.7,5.4,68,0.00,,,0.00,WUHU216WMR968SP,2013-06-09 12:42:00,
2013-06-09 07:47:00,70.7,60.8,29.56,SSE,167,3.5,5.8,67,0.00,,,0.00,WUHU216WMR968SP,2013-06-09 12:47:00,
2013-06-09 07:53:00,71.2,60.8,29.59,SSE,156,3.6,5.8,69,0.00,,,0.00,WUHU216WMR968SP,2013-06-09 12:53:00,
2013-06-09 07:58:00,71.8,60.8,29.59,South,188,2.9,5.4,67,0.00,,,0.00,WUHU216WMR968SP,2013-06-09 12:58:00,
2013-06-09 08:04:00,72.1,60.8,29.59,SSE,153,3.5,8.1,67,0.00,,,0.00,WUHU216WMR968SP,2013-06-09 13:04:00,
2013-06-09 08:09:00,72.1,59.0,29.59,SSE,151,3.6,8.1,66,0.00,,,0.00,WUHU216WMR968SP,2013-06-09 13:09:00,
2013-06-09 08:14:00,72.7,62.6,29.59,SE,142,3.1,5.8,67,0.00,,,0.00,WUHU216WMR968SP,2013-06-09 13:14:00,
2013-06-09 08:20:00,73.2,60.8,29.59,SSE,157,3.3,7.2,65,0.00,,,0.00,WUHU216WMR968SP,2013-06-09 13:20:00,
2013-06-09 08:25:00,73.4,60.8,29.59,SSE,168,2.9,7.2,64,0.00,,,0.00,WUHU216WMR968SP,2013-06-09 13:25:00,
2013-06-09 08:31:00,73.8,60.8,29.59,SSW,195,2.7,6.7,64,0.00,,,0.00,WUHU216WMR968SP,2013-06-09 13:31:00,
2013-06-09 08:36:00,74.5,62.6,29.59,SSW,204,2.2,6.3,63,0.00,,,0.00,WUHU216WMR968SP,2013-06-09 13:36:00,
2013-06-09 08:41:00,75.2,60.8,29.59,SSE,153,3.6,6.3,59,0.00,,,0.00,WUHU216WMR968SP,2013-06-09 13:41:00,
2013-06-09 08:47:00,76.5,60.8,29.59,SSE,164,3.1,5.8,57,0.00,,,0.00,WUHU216WMR968SP,2013-06-09 13:47:00,
2013-06-09 08:52:00,77.7,57.2,29.59,SSE,150,4.0,6.3,50,0.00,,,0.00,WUHU216WMR968SP,2013-06-09 13:52:00,
2013-06-09 08:58:00,79.7,59.0,29.59,South,174,3.2,6.3,48,0.00,,,0.00,WUHU216WMR968SP,2013-06-09 13:58:00,
2013-06-09 09:03:00,80.2,57.2,29.59,South,187,4.4,8.7,45,0.00,,,0.00,WUHU216WMR968SP,2013-06-09 14:03:00,
2013-06-09 09:09:00,80.1,57.2,29.59,South,174,4.6,8.7,44,0.00,,,0.00,WUHU216WMR968SP,2013-06-09 14:09:00,
2013-06-09 09:14:00,80.4,57.2,29.59,SSE,156,3.3,8.3,44,0.00,,,0.00,WUHU216WMR968SP,2013-06-09 14:14:00,
2013-06-09 09:19:00,81.5,57.2,29.59,SSE,157,4.0,8.3,42,0.00,,,0.00,WUHU216WMR968SP,2013-06-09 14:19:00,
2013-06-09 09:25:00,82.0,55.4,29.59,South,186,5.4,8.3,40,0.00,,,0.00,WUHU216WMR968SP,2013-06-09 14:25:00,
2013-06-09 09:30:00,82.4,55.4,29.59,SSE,152,3.8,6.3,40,0.00,,,0.00,WUHU216WMR968SP,2013-06-09 14:30:00,
2013-06-09 09:36:00,82.9,55.4,29.59,SSE,165,3.9,6.3,39,0.00,,,0.00,WUHU216WMR968SP,2013-06-09 14:36:00,
2013-06-09 09:41:00,82.8,57.2,29.59,South,188,4.9,6.3,41,0.00,,,0.00,WUHU216WMR968SP,2013-06-09 14:41:00,
2013-06-09 09:47:00,83.8,57.2,29.59,South,184,4.5,8.3,40,0.00,,,0.00,WUHU216WMR968SP,2013-06-09 14:47:00,
2013-06-09 09:52:00,84.9,55.4,29.59,South,188,4.5,8.3,37,0.00,,,0.00,WUHU216WMR968SP,2013-06-09 14:52:00,
2013-06-09 09:58:00,84.9,55.4,29.59,South,186,4.1,8.7,38,0.00,,,0.00,WUHU216WMR968SP,2013-06-09 14:58:00,
2013-06-09 10:03:00,84.7,55.4,29.59,South,190,4.3,8.7,37,0.00,,,0.00,WUHU216WMR968SP,2013-06-09 15:03:00,
2013-06-09 10:08:00,84.0,55.4,29.59,South,182,4.7,8.3,37,0.00,,,0.00,WUHU216WMR968SP,2013-06-09 15:08:00,
2013-06-09 10:14:00,83.7,55.4,29.59,South,173,4.5,8.3,38,0.00,,,0.00,WUHU216WMR968SP,2013-06-09 15:14:00,
2013-06-09 10:19:00,83.7,57.2,29.59,SSE,157,5.2,8.7,40,0.00,,,0.00,WUHU216WMR968SP,2013-06-09 15:19:00,
2013-06-09 10:25:00,83.3,57.2,29.59,SSE,162,4.3,8.7,39,0.00,,,0.00,WUHU216WMR968SP,2013-06-09 15:25:00,
2013-06-09 10:30:00,83.1,55.4,29.59,SSE,157,3.1,10.1,39,0.00,,,0.00,WUHU216WMR968SP,2013-06-09 15:30:00,
2013-06-09 10:36:00,83.8,57.2,29.59,SE,144,6.3,8.3,40,0.00,,,0.00,WUHU216WMR968SP,2013-06-09 15:36:00,
2013-06-09 10:41:00,84.7,55.4,29.59,SSW,197,5.8,9.6,37,0.00,,,0.00,WUHU216WMR968SP,2013-06-09 15:41:00,
2013-06-09 10:46:00,85.5,55.4,29.59,South,191,8.1,10.5,35,0.00,,,0.00,WUHU216WMR968SP,2013-06-09 15:46:00,
2013-06-09 10:52:00,86.2,55.4,29.59,South,170,5.7,10.5,35,0.00,,,0.00,WUHU216WMR968SP,2013-06-09 15:52:00,
2013-06-09 10:57:00,87.1,53.6,29.59,South,184,6.0,8.7,32,0.00,,,0.00,WUHU216WMR968SP,2013-06-09 15:57:00,
2013-06-09 11:03:00,87.4,53.6,29.59,SE,129,5.4,8.7,32,0.00,,,0.00,WUHU216WMR968SP,2013-06-09 16:03:00,
2013-06-09 11:08:00,87.8,53.6,29.59,SE,144,4.5,7.6,31,0.00,,,0.00,WUHU216WMR968SP,2013-06-09 16:08:00,
2013-06-09 11:14:00,88.5,53.6,29.59,SSE,162,4.4,10.5,31,0.00,,,0.00,WUHU216WMR968SP,2013-06-09 16:14:00,
2013-06-09 11:19:00,88.5,51.8,29.59,SSW,202,4.5,8.7,30,0.00,,,0.00,WUHU216WMR968SP,2013-06-09 16:19:00,
2013-06-09 11:24:00,88.2,51.8,29.59,South,170,5.3,12.8,30,0.00,,,0.00,WUHU216WMR968SP,2013-06-09 16:24:00,
2013-06-09 11:30:00,88.0,53.6,29.59,South,186,6.1,12.8,31,0.00,,,0.00,WUHU216WMR968SP,2013-06-09 16:30:00,
2013-06-09 11:35:00,87.6,53.6,29.56,South,180,5.4,10.5,31,0.00,,,0.00,WUHU216WMR968SP,2013-06-09 16:35:00,
2013-06-09 11:41:00,87.1,53.6,29.56,SSW,203,5.1,9.6,31,0.00,,,0.00,WUHU216WMR968SP,2013-06-09 16:41:00,
2013-06-09 11:46:00,88.2,53.6,29.56,South,176,5.6,10.1,31,0.00,,,0.00,WUHU216WMR968SP,2013-06-09 16:46:00,
2013-06-09 11:51:00,87.3,51.8,29.56,SSE,156,4.0,10.1,30,0.00,,,0.00,WUHU216WMR968SP,2013-06-09 16:51:00,
2013-06-09 11:57:00,88.2,51.8,29.56,South,169,3.7,9.2,30,0.00,,,0.00,WUHU216WMR968SP,2013-06-09 16:57:00,
2013-06-09 12:02:00,88.2,51.8,29.56,South,175,5.9,9.2,30,0.00,,,0.00,WUHU216WMR968SP,2013-06-09 17:02:00,
2013-06-09 12:08:00,87.8,51.8,29.56,SSW,201,4.5,8.3,29,0.00,,,0.00,WUHU216WMR968SP,2013-06-09 17:08:00,
2013-06-09 12:13:00,87.8,51.8,29.56,South,174,7.3,10.1,29,0.00,,,0.00,WUHU216WMR968SP,2013-06-09 17:13:00,
2013-06-09 12:19:00,86.9,51.8,29.56,SSE,164,4.5,10.1,30,0.00,,,0.00,WUHU216WMR968SP,2013-06-09 17:19:00,
2013-06-09 12:24:00,87.1,51.8,29.56,SW,221,4.8,11.0,29,0.00,,,0.00,WUHU216WMR968SP,2013-06-09 17:24:00,
2013-06-09 12:29:00,87.1,51.8,29.56,SSW,195,7.6,11.0,30,0.00,,,0.00,WUHU216WMR968SP,2013-06-09 17:29:00,
2013-06-09 12:35:00,87.3,51.8,29.53,SSW,198,5.4,10.5,30,0.00,,,0.00,WUHU216WMR968SP,2013-06-09 17:35:00,
2013-06-09 12:40:00,88.0,51.8,29.53,SSW,196,5.7,8.7,29,0.00,,,0.00,WUHU216WMR968SP,2013-06-09 17:40:00,
2013-06-09 12:46:00,88.2,50.0,29.53,North,0,4.9,10.1,28,0.00,,,0.00,WUHU216WMR968SP,2013-06-09 17:46:00,
2013-06-09 12:51:00,87.1,51.8,29.53,South,191,4.5,10.1,29,0.00,,,0.00,WUHU216WMR968SP,2013-06-09 17:51:00,
2013-06-09 12:57:00,87.6,51.8,29.53,SSW,193,5.4,8.1,29,0.00,,,0.00,WUHU216WMR968SP,2013-06-09 17:57:00,
2013-06-09 13:02:00,87.4,51.8,29.53,SSW,213,4.5,8.3,29,0.00,,,0.00,WUHU216WMR968SP,2013-06-09 18:02:00,
2013-06-09 13:07:00,87.3,51.8,29.53,SSW,198,3.9,8.7,29,0.00,,,0.00,WUHU216WMR968SP,2013-06-09 18:07:00,
2013-06-09 13:13:00,87.6,51.8,29.53,SSW,195,6.3,10.5,29,0.00,,,0.00,WUHU216WMR968SP,2013-06-09 18:13:00,
2013-06-09 13:18:00,87.8,51.8,29.53,SE,138,4.9,10.5,30,0.00,,,0.00,WUHU216WMR968SP,2013-06-09 18:18:00,
2013-06-09 13:24:00,88.2,50.0,29.53,SSW,201,5.0,8.1,28,0.00,,,0.00,WUHU216WMR968SP,2013-06-09 18:24:00,
2013-06-09 13:29:00,87.8,51.8,29.53,SSW,199,5.8,8.3,29,0.00,,,0.00,WUHU216WMR968SP,2013-06-09 18:29:00,
2013-06-09 13:35:00,88.2,51.8,29.50,South,183,5.4,8.3,30,0.00,,,0.00,WUHU216WMR968SP,2013-06-09 18:35:00,
2013-06-09 13:40:00,87.8,50.0,29.50,SW,232,2.7,8.7,28,0.00,,,0.00,WUHU216WMR968SP,2013-06-09 18:40:00,
2013-06-09 13:45:00,87.8,51.8,29.50,South,189,5.8,10.1,29,0.00,,,0.00,WUHU216WMR968SP,2013-06-09 18:45:00,
2013-06-09 13:51:00,87.8,51.8,29.50,South,182,4.5,10.1,29,0.00,,,0.00,WUHU216WMR968SP,2013-06-09 18:51:00,
2013-06-09 13:56:00,87.8,51.8,29.50,SSW,204,4.9,8.7,29,0.00,,,0.00,WUHU216WMR968SP,2013-06-09 18:56:00,
2013-06-09 14:02:00,86.7,50.0,29.50,SSW,195,4.9,8.1,29,0.00,,,0.00,WUHU216WMR968SP,2013-06-09 19:02:00,
2013-06-09 14:07:00,86.5,51.8,29.50,South,187,7.2,8.7,30,0.00,,,0.00,WUHU216WMR968SP,2013-06-09 19:07:00,
2013-06-09 14:13:00,87.3,51.8,29.50,SSW,192,4.5,8.7,30,0.00,,,0.00,WUHU216WMR968SP,2013-06-09 19:13:00,
2013-06-09 14:18:00,87.4,51.8,29.50,SSW,205,4.2,7.2,29,0.00,,,0.00,WUHU216WMR968SP,2013-06-09 19:18:00,
2013-06-09 14:24:00,88.2,51.8,29.50,South,191,5.4,8.1,29,0.00,,,0.00,WUHU216WMR968SP,2013-06-09 19:24:00,
2013-06-09 14:29:00,88.2,51.8,29.50,SSE,167,5.4,8.1,29,0.00,,,0.00,WUHU216WMR968SP,2013-06-09 19:29:00,
2013-06-09 14:34:00,88.5,50.0,29.47,SSW,208,7.0,10.5,28,0.00,,,0.00,WUHU216WMR968SP,2013-06-09 19:34:00,
2013-06-09 14:40:00,88.7,51.8,29.47,SSE,163,6.7,10.5,28,0.00,,,0.00,WUHU216WMR968SP,2013-06-09 19:40:00,
2013-06-09 14:45:00,88.2,50.0,29.47,South,173,4.5,8.1,28,0.00,,,0.00,WUHU216WMR968SP,2013-06-09 19:45:00,
2013-06-09 14:51:00,88.0,51.8,29.47,SSW,199,6.7,8.3,29,0.00,,,0.00,WUHU216WMR968SP,2013-06-09 19:51:00,
2013-06-09 14:56:00,87.8,51.8,29.47,South,187,5.4,8.3,29,0.00,,,0.00,WUHU216WMR968SP,2013-06-09 19:56:00,
2013-06-09 15:01:00,88.3,50.0,29.47,SE,144,5.8,8.7,28,0.00,,,0.00,WUHU216WMR968SP,2013-06-09 20:01:00,
2013-06-09 15:07:00,88.0,50.0,29.47,South,187,5.6,11.9,28,0.00,,,0.00,WUHU216WMR968SP,2013-06-09 20:07:00,
2013-06-09 15:12:00,88.0,51.8,29.47,South,190,5.4,8.3,29,0.00,,,0.00,WUHU216WMR968SP,2013-06-09 20:12:00,
2013-06-09 15:18:00,88.3,50.0,29.47,SSW,203,4.9,8.3,28,0.00,,,0.00,WUHU216WMR968SP,2013-06-09 20:18:00,
2013-06-09 15:23:00,88.3,50.0,29.47,South,175,5.2,10.5,28,0.00,,,0.00,WUHU216WMR968SP,2013-06-09 20:23:00,
2013-06-09 15:29:00,88.3,50.0,29.47,SSW,196,6.3,10.5,28,0.00,,,0.00,WUHU216WMR968SP,2013-06-09 20:29:00,
2013-06-09 15:34:00,88.0,50.0,29.47,South,180,6.3,10.5,28,0.00,,,0.00,WUHU216WMR968SP,2013-06-09 20:34:00,
2013-06-09 15:39:00,88.2,50.0,29.47,SSW,206,6.3,9.2,28,0.00,,,0.00,WUHU216WMR968SP,2013-06-09 20:39:00,
2013-06-09 15:45:00,88.5,50.0,29.47,South,191,6.3,10.5,28,0.00,,,0.00,WUHU216WMR968SP,2013-06-09 20:45:00,
2013-06-09 15:50:00,89.8,51.8,29.47,SSE,149,4.5,10.5,28,0.00,,,0.00,WUHU216WMR968SP,2013-06-09 20:50:00,
2013-06-09 15:56:00,89.6,51.8,29.47,South,186,4.3,7.6,28,0.00,,,0.00,WUHU216WMR968SP,2013-06-09 20:56:00,
2013-06-09 16:01:00,90.1,51.8,29.47,SSW,193,4.7,8.1,27,0.00,,,0.00,WUHU216WMR968SP,2013-06-09 21:01:00,
2013-06-09 16:07:00,89.2,51.8,29.47,SSW,208,5.5,8.3,28,0.00,,,0.00,WUHU216WMR968SP,2013-06-09 21:07:00,
2013-06-09 16:12:00,89.1,51.8,29.47,SW,214,4.8,8.3,28,0.00,,,0.00,WUHU216WMR968SP,2013-06-09 21:12:00,
2013-06-09 16:17:00,88.9,51.8,29.47,SSW,201,5.9,10.5,27,0.00,,,0.00,WUHU216WMR968SP,2013-06-09 21:17:00,
2013-06-09 16:23:00,88.7,51.8,29.47,SSE,150,5.4,10.5,28,0.00,,,0.00,WUHU216WMR968SP,2013-06-09 21:23:00,
2013-06-09 16:28:00,89.1,51.8,29.47,SSW,196,4.8,6.3,28,0.00,,,0.00,WUHU216WMR968SP,2013-06-09 21:28:00,
2013-06-09 16:34:00,89.4,53.6,29.44,SSW,203,2.9,6.3,29,0.00,,,0.00,WUHU216WMR968SP,2013-06-09 21:34:00,
2013-06-09 16:39:00,89.4,51.8,29.44,SSW,203,4.2,5.8,28,0.00,,,0.00,WUHU216WMR968SP,2013-06-09 21:39:00,
2013-06-09 16:45:00,89.4,51.8,29.44,SSW,208,4.0,7.6,28,0.00,,,0.00,WUHU216WMR968SP,2013-06-09 21:45:00,
2013-06-09 16:50:00,88.7,51.8,29.44,SSW,200,5.4,7.6,28,0.00,,,0.00,WUHU216WMR968SP,2013-06-09 21:50:00,
2013-06-09 16:55:00,88.0,51.8,29.44,SSE,167,2.7,6.3,29,0.00,,,0.00,WUHU216WMR968SP,2013-06-09 21:55:00,
2013-06-09 17:01:00,88.2,51.8,29.44,SE,136,5.8,8.1,29,0.00,,,0.00,WUHU216WMR968SP,2013-06-09 22:01:00,
2013-06-09 17:06:00,87.4,50.0,29.44,South,190,6.7,11.0,28,0.00,,,0.00,WUHU216WMR968SP,2013-06-09 22:06:00,
2013-06-09 17:12:00,87.1,51.8,29.44,South,180,6.7,11.0,29,0.00,,,0.00,WUHU216WMR968SP,2013-06-09 22:12:00,
2013-06-09 17:17:00,87.3,51.8,29.44,SSW,202,4.9,8.1,30,0.00,,,0.00,WUHU216WMR968SP,2013-06-09 22:17:00,
2013-06-09 17:23:00,87.3,51.8,29.44,SSE,150,4.5,6.3,30,0.00,,,0.00,WUHU216WMR968SP,2013-06-09 22:23:00,
2013-06-09 17:28:00,86.5,50.0,29.44,WNW,282,4.5,7.2,29,0.00,,,0.00,WUHU216WMR968SP,2013-06-09 22:28:00,
2013-06-09 17:33:00,85.8,51.8,29.44,South,190,4.2,10.5,30,0.00,,,0.00,WUHU216WMR968SP,2013-06-09 22:33:00,
2013-06-09 17:39:00,84.9,50.0,29.44,South,190,4.0,10.5,31,0.00,,,0.00,WUHU216WMR968SP,2013-06-09 22:39:00,
2013-06-09 17:44:00,84.4,51.8,29.44,South,182,2.2,6.3,33,0.00,,,0.00,WUHU216WMR968SP,2013-06-09 22:44:00,
2013-06-09 17:49:00,83.7,53.6,29.44,South,173,2.6,5.8,35,0.00,,,0.00,WUHU216WMR968SP,2013-06-09 22:49:00,
2013-06-09 17:54:00,83.1,53.6,29.44,SSW,201,3.1,4.9,36,0.00,,,0.00,WUHU216WMR968SP,2013-06-09 22:54:00,
2013-06-09 17:59:00,80.8,50.0,29.44,NNW,327,6.0,10.1,35,0.00,,,0.00,WUHU216WMR968SP,2013-06-09 22:59:00,
2013-06-09 18:04:00,77.7,51.8,29.47,SSW,200,4.0,10.1,42,0.00,,,0.00,WUHU216WMR968SP,2013-06-09 23:04:00,
2013-06-09 18:09:00,73.4,57.2,29.47,WNW,301,3.2,7.6,57,0.00,,,0.00,WUHU216WMR968SP,2013-06-09 23:09:00,
2013-06-09 18:14:00,70.7,60.8,29.47,West,268,3.0,6.3,71,0.00,,,0.00,WUHU216WMR968SP,2013-06-09 23:14:00,
2013-06-09 18:19:00,69.8,62.6,29.47,SW,220,3.1,5.8,78,0.00,,,0.00,WUHU216WMR968SP,2013-06-09 23:19:00,
2013-06-09 18:24:00,69.6,64.4,29.47,ESE,103,3.1,6.3,81,0.00,,,0.00,WUHU216WMR968SP,2013-06-09 23:24:00,
2013-06-09 18:29:00,69.6,64.4,29.47,SSW,198,3.6,6.3,83,0.00,,,0.00,WUHU216WMR968SP,2013-06-09 23:29:00,
2013-06-09 18:34:00,69.6,64.4,29.47,SE,146,0.0,5.8,83,0.00,,,0.00,WUHU216WMR968SP,2013-06-09 23:34:00,
2013-06-09 18:39:00,70.0,64.4,29.47,ESE,121,0.0,3.1,84,0.00,,,0.00,WUHU216WMR968SP,2013-06-09 23:39:00,
2013-06-09 18:44:00,70.3,64.4,29.47,SSW,202,3.2,4.0,85,0.00,,,0.00,WUHU216WMR968SP,2013-06-09 23:44:00,
2013-06-09 18:49:00,70.5,66.2,29.50,SSE,164,3.4,4.9,86,0.00,,,0.00,WUHU216WMR968SP,2013-06-09 23:49:00,
2013-06-09 18:54:00,70.5,66.2,29.50,SSE,168,2.7,6.3,86,0.00,,,0.00,WUHU216WMR968SP,2013-06-09 23:54:00,
2013-06-09 18:59:00,70.5,66.2,29.50,SSW,204,4.0,6.3,87,0.00,,,0.00,WUHU216WMR968SP,2013-06-09 23:59:00,
2013-06-09 19:04:00,70.3,66.2,29.50,SSW,194,2.2,5.4,87,0.00,,,0.00,WUHU216WMR968SP,2013-06-10 00:04:00,
2013-06-09 19:09:00,70.2,66.2,29.50,South,170,2.7,4.9,87,0.00,,,0.00,WUHU216WMR968SP,2013-06-10 00:09:00,
2013-06-09 19:14:00,70.0,66.2,29.50,SSW,198,4.3,6.3,87,0.00,,,0.00,WUHU216WMR968SP,2013-06-10 00:14:00,
2013-06-09 19:19:00,70.0,66.2,29.50,South,171,2.2,6.3,88,0.00,,,0.00,WUHU216WMR968SP,2013-06-10 00:19:00,
2013-06-09 19:24:00,70.2,66.2,29.50,SSE,167,0.0,3.6,88,0.00,,,0.00,WUHU216WMR968SP,2013-06-10 00:24:00,
2013-06-09 19:29:00,70.3,66.2,29.50,East,84,2.2,4.0,88,0.00,,,0.00,WUHU216WMR968SP,2013-06-10 00:29:00,
2013-06-09 19:34:00,70.2,66.2,29.50,SSE,149,0.0,4.0,88,0.00,,,0.00,WUHU216WMR968SP,2013-06-10 00:34:00,
2013-06-09 19:39:00,70.2,66.2,29.50,SSW,203,2.7,4.0,89,0.00,,,0.00,WUHU216WMR968SP,2013-06-10 00:39:00,
2013-06-09 19:44:00,70.3,66.2,29.50,ESE,104,0.0,4.0,89,0.00,,,0.00,WUHU216WMR968SP,2013-06-10 00:44:00,
2013-06-09 19:49:00,70.2,66.2,29.50,SSE,148,0.0,2.7,89,0.00,,,0.00,WUHU216WMR968SP,2013-06-10 00:49:00,
2013-06-09 19:54:00,70.2,66.2,29.50,SSE,148,0.0,2.2,89,0.00,,,0.00,WUHU216WMR968SP,2013-06-10 00:54:00,
2013-06-09 19:59:00,70.0,66.2,29.50,SSE,148,0.0,2.7,89,0.00,,,0.00,WUHU216WMR968SP,2013-06-10 00:59:00,
2013-06-09 20:04:00,70.0,66.2,29.50,SSE,148,0.0,2.7,89,0.00,,,0.00,WUHU216WMR968SP,2013-06-10 01:04:00,
2013-06-09 20:09:00,70.0,66.2,29.50,SSE,148,0.0,0.0,89,0.00,,,0.00,WUHU216WMR968SP,2013-06-10 01:09:00,
2013-06-09 20:14:00,70.2,66.2,29.50,SSE,148,0.0,0.0,89,0.00,,,0.00,WUHU216WMR968SP,2013-06-10 01:14:00,
2013-06-09 20:19:00,70.2,66.2,29.50,East,81,0.0,3.1,90,0.00,,,0.00,WUHU216WMR968SP,2013-06-10 01:19:00,
2013-06-09 20:24:00,70.0,66.2,29.50,East,97,0.0,3.1,90,0.00,,,0.00,WUHU216WMR968SP,2013-06-10 01:24:00,
2013-06-09 20:29:00,69.8,66.2,29.50,East,99,0.0,3.1,90,0.00,,,0.00,WUHU216WMR968SP,2013-06-10 01:29:00,
2013-06-09 20:34:00,69.8,66.2,29.50,East,94,0.0,3.1,90,0.00,,,0.00,WUHU216WMR968SP,2013-06-10 01:34:00,
2013-06-09 20:39:00,69.6,66.2,29.50,ENE,76,0.0,2.7,90,0.00,,,0.00,WUHU216WMR968SP,2013-06-10 01:39:00,
2013-06-09 20:44:00,69.6,66.2,29.50,SSE,155,0.0,3.1,90,0.00,,,0.00,WUHU216WMR968SP,2013-06-10 01:44:00,
2013-06-09 20:49:00,69.6,66.2,29.50,South,186,0.0,3.6,90,0.00,,,0.00,WUHU216WMR968SP,2013-06-10 01:49:00,
2013-06-09 20:54:00,69.6,66.2,29.50,South,182,0.0,3.6,90,0.00,,,0.00,WUHU216WMR968SP,2013-06-10 01:54:00,
2013-06-09 20:59:00,69.6,66.2,29.50,ESE,116,2.7,4.0,91,0.00,,,0.00,WUHU216WMR968SP,2013-06-10 01:59:00,
2013-06-09 21:04:00,69.4,66.2,29.50,ESE,120,0.0,4.0,91,0.00,,,0.00,WUHU216WMR968SP,2013-06-10 02:04:00,
2013-06-09 21:09:00,69.3,66.2,29.50,ESE,102,2.7,4.0,91,0.00,,,0.00,WUHU216WMR968SP,2013-06-10 02:09:00,
2013-06-09 21:14:00,69.4,66.2,29.50,East,89,0.0,4.0,91,0.00,,,0.00,WUHU216WMR968SP,2013-06-10 02:14:00,
2013-06-09 21:19:00,69.3,66.2,29.50,East,89,0.0,0.0,91,0.00,,,0.00,WUHU216WMR968SP,2013-06-10 02:19:00,
2013-06-09 21:24:00,69.3,66.2,29.50,SSW,196,0.0,0.0,91,0.00,,,0.00,WUHU216WMR968SP,2013-06-10 02:24:00,
2013-06-09 21:29:00,69.3,66.2,29.50,SSW,196,0.0,0.0,91,0.00,,,0.00,WUHU216WMR968SP,2013-06-10 02:29:00,
2013-06-09 21:34:00,69.1,66.2,29.50,SSW,196,0.0,0.0,91,0.00,,,0.00,WUHU216WMR968SP,2013-06-10 02:34:00,
2013-06-09 21:39:00,68.9,66.2,29.50,SSW,196,0.0,0.0,91,0.00,,,0.00,WUHU216WMR968SP,2013-06-10 02:39:00,
2013-06-09 21:44:00,68.7,64.4,29.50,SSW,196,0.0,2.2,91,0.00,,,0.00,WUHU216WMR968SP,2013-06-10 02:44:00,
2013-06-09 21:49:00,68.5,64.4,29.50,SSW,196,0.0,2.2,91,0.00,,,0.00,WUHU216WMR968SP,2013-06-10 02:49:00,
2013-06-09 21:54:00,68.7,64.4,29.50,SSW,196,0.0,0.0,91,0.00,,,0.00,WUHU216WMR968SP,2013-06-10 02:54:00,
2013-06-09 21:59:00,68.5,66.2,29.50,SSW,196,0.0,0.0,92,0.00,,,0.00,WUHU216WMR968SP,2013-06-10 02:59:00,
2013-06-09 22:04:00,68.9,68.0,29.53,SSW,196,0.0,0.0,92,0.00,,,0.00,WUHU216WMR968SP,2013-06-10 03:04:00,
2013-06-09 22:09:00,68.9,68.0,29.53,SSW,196,0.0,2.7,92,0.00,,,0.00,WUHU216WMR968SP,2013-06-10 03:09:00,
2013-06-09 22:14:00,68.9,68.0,29.53,SSW,196,0.0,2.7,92,0.00,,,0.00,WUHU216WMR968SP,2013-06-10 03:14:00,
2013-06-09 22:19:00,68.7,66.2,29.53,SSW,196,0.0,0.0,92,0.00,,,0.00,WUHU216WMR968SP,2013-06-10 03:19:00,
2013-06-09 22:24:00,68.5,66.2,29.53,SSW,196,0.0,0.0,92,0.00,,,0.00,WUHU216WMR968SP,2013-06-10 03:24:00,
2013-06-09 22:29:00,68.5,66.2,29.53,NNW,331,2.7,3.6,92,0.00,,,0.00,WUHU216WMR968SP,2013-06-10 03:29:00,
2013-06-09 22:34:00,68.5,66.2,29.53,North,357,0.0,3.6,92,0.00,,,0.00,WUHU216WMR968SP,2013-06-10 03:34:00,
2013-06-09 22:39:00,68.5,66.2,29.53,North,357,0.0,3.6,92,0.00,,,0.00,WUHU216WMR968SP,2013-06-10 03:39:00,
2013-06-09 22:44:00,68.7,66.2,29.53,North,357,0.0,0.0,92,0.00,,,0.00,WUHU216WMR968SP,2013-06-10 03:44:00,
2013-06-09 22:49:00,68.5,66.2,29.53,North,357,0.0,0.0,92,0.00,,,0.00,WUHU216WMR968SP,2013-06-10 03:49:00,
2013-06-09 22:54:00,68.4,66.2,29.53,North,357,0.0,0.0,92,0.00,,,0.00,WUHU216WMR968SP,2013-06-10 03:54:00,
2013-06-09 22:59:00,68.2,66.2,29.53,North,357,0.0,0.0,92,0.00,,,0.00,WUHU216WMR968SP,2013-06-10 03:59:00,
2013-06-09 23:01:00,68.2,66.2,29.53,North,357,0.0,0.0,92,0.00,,,0.00,WUHU216WMR968SP,2013-06-10 04:01:00,
2013-06-09 23:07:00,68.0,66.2,29.53,North,357,0.0,0.0,92,0.00,,,0.00,WUHU216WMR968SP,2013-06-10 04:07:00,
2013-06-09 23:12:00,68.0,66.2,29.53,North,357,0.0,0.0,92,0.00,,,0.00,WUHU216WMR968SP,2013-06-10 04:12:00,
2013-06-09 23:17:00,68.0,66.2,29.53,North,357,0.0,0.0,92,0.00,,,0.00,WUHU216WMR968SP,2013-06-10 04:17:00,
2013-06-09 23:22:00,68.2,66.2,29.53,North,357,0.0,0.0,92,0.00,,,0.00,WUHU216WMR968SP,2013-06-10 04:22:00,
2013-06-09 23:27:00,68.4,66.2,29.53,North,357,0.0,0.0,92,0.00,,,0.00,WUHU216WMR968SP,2013-06-10 04:27:00,
2013-06-09 23:32:00,68.2,66.2,29.53,North,357,0.0,0.0,92,0.00,,,0.00,WUHU216WMR968SP,2013-06-10 04:32:00,
2013-06-09 23:37:00,68.2,66.2,29.53,North,357,0.0,0.0,92,0.00,,,0.00,WUHU216WMR968SP,2013-06-10 04:37:00,
2013-06-09 23:42:00,67.8,66.2,29.53,North,357,0.0,0.0,93,0.00,,,0.00,WUHU216WMR968SP,2013-06-10 04:42:00,
2013-06-09 23:47:00,67.8,66.2,29.53,North,357,0.0,0.0,93,0.00,,,0.00,WUHU216WMR968SP,2013-06-10 04:47:00,
2013-06-09 23:52:00,67.8,66.2,29.53,North,357,0.0,0.0,93,0.00,,,0.00,WUHU216WMR968SP,2013-06-10 04:52:00,
2013-06-09 23:57:00,67.8,66.2,29.53,North,357,0.0,0.0,93,0.00,,,0.00,WUHU216WMR968SP,2013-06-10 04:57:00,